sat.trackr.live / text

‹ back to catalog

STARLINK-32341

NORAD 61639 · 2024-191U

PAYLOAD ACTIVE UNKNOWN

§ Identity

Operator
Country
US
Launch date
2024-10-23
Launch site
AFETR
Launch vehicle
Mass (kg)
RCS (m²)

Purposes: comms

External: N2YO · Heavens-Above · Gunter

§ Orbital elements

Epoch: 2026-09-20T23:39:14.791968Z

Period
94.27 min
Inclination
43.0016°
Eccentricity
0.0001211
Mean motion
15.27580946 rev/d
Perigee alt
482.2 km
Apogee alt
483.9 km
Semi-major
6,861.2 km
B*
3.1546e-5
RAAN
131.6322°
Arg perigee
269.4625°
Mean anomaly
90.6088°
Rev number
10,740

§ Raw data

STARLINK-323411 61639U 24191U   26263.98558787  .00000606  00000+0  31546-4 0  99922 61639  43.0016 131.6322 0001211 269.4625  90.6088 15.27580946107408

JSON: /api/v1/satellites/61639 · /tle

For live sub-satellite position, see the globe view (requires WebGL).

§ Visibility from observer

Set your observer location to see the next 7 days of passes ≥ 10°. The values pass through the URL so the page stays shareable.

No JS? Fill the form by hand. The geolocation button needs JavaScript.